[ hide orbit diagram ]
For accurate long-term ephemerides, please instead use our Horizons system.This orbit viewer was implemented using two-body methods, and hence should not be used for determining accurate long-term trajectories (over several years or decades) or planetary encounter circumstances.
Orbital Elements at Epoch 2459000.5 (2020-May-31.0) TDB
Reference: JPL 12 (heliocentric ecliptic J2000)
Element | Value | Uncertainty (1-sigma) | Units |
e | .2655605786420472 | 6.0485e-08 | |
a | 2.588820595780575 | 2.0113e-08 | au |
q | 1.901331900364636 | 1.4761e-07 | au |
i | 13.65458997416947 | 7.4459e-06 | deg |
node | 170.3618657224408 | 4.3834e-05 | deg |
peri | 160.0789437546543 | 5.0265e-05 | deg |
M | 89.86481479730148 | 2.6622e-05 | deg |
tp | 2458620.714357734160 (2019-May-17.21435773) | 0.0001095 | TDB |
period | 1521.42784163183 4.17 | 1.7731e-05 4.854e-08 | d yr |
n | .2366198318113311 | 2.7575e-09 | deg/d |
Q | 3.276309291196513 | 2.5455e-08 | au |
|
| | Orbit Determination Parameters
Additional Information
|
[ show covariance matrix ]
Physical Parameter Table
Parameter |
Symbol |
Value |
Units |
Sigma |
Reference |
Notes |
absolute magnitude |
H |
17.1 |
|
n/a |
MPO494993 |
|
|
393484 (2002 PZ71) Discovered 2002-Aug-12 by LINEAR at Socorro |
Reference: | Last Updated: 2014-05-15 |
|
[ hide close-approach data ]
Close-Approach Data ...sorted by Date/Time (TDB)
|
Date/Time (TDB) |
Time Uncertainty (days_HH:MM) |
Body |
Nominal Distance (au) |
Minimum Distance (au) |
Maximum Distance (au) |
V-relative (km/s) |
V-infinity (km/s) |
JD (TDB) |
Time Uncertainty (minutes) |
Semi-major axis (km) |
Semi-minor axis (km) |
range-LOV angle (deg) |
N-sigma |
BP |
Orbit Ref. |
Reference |
Modified |
2132-Jan-27 19:21 |
00:18 |
Juno |
0.0105345441583988 |
0.0103198411512627 |
0.0107625015650706 |
7.02064792480379 |
7.02064776030866 |
2499783.306323525 |
17.7136206270266 |
21653.1304568798 |
86.4206190661822 |
59.3449718928892 |
15681.1013897508 |
T |
12 |
CATAB v2.0f-lin.ifort 2020-Feb-26 04:50:48 |
2020-Feb-26 04:50 |
|
|